Index of /20260502/WXO-DD/model_rdps/10km/12/074
Name Last modified Size Description
Parent Directory -
20260502T12Z_MSC_RDPS_AbsoluteVorticity_IsbL-0250_RLatLon0.09_PT074H.grib2 2026-05-02 15:02 734K
20260502T12Z_MSC_RDPS_AbsoluteVorticity_IsbL-0500_RLatLon0.09_PT074H.grib2 2026-05-02 15:02 700K
20260502T12Z_MSC_RDPS_AbsoluteVorticity_IsbL-0700_RLatLon0.09_PT074H.grib2 2026-05-02 15:02 614K
20260502T12Z_MSC_RDPS_AbsoluteVorticity_IsbL-0850_RLatLon0.09_PT074H.grib2 2026-05-02 15:02 799K
20260502T12Z_MSC_RDPS_AirTemp_AGL-120m_RLatLon0.09_PT074H.grib2 2026-05-02 15:02 384K
20260502T12Z_MSC_RDPS_AirTemp_AGL-2m_RLatLon0.09_PT074H.grib2 2026-05-02 15:02 629K
20260502T12Z_MSC_RDPS_AirTemp_AGL-40m_RLatLon0.09_PT074H.grib2 2026-05-02 15:02 396K
20260502T12Z_MSC_RDPS_AirTemp_AGL-80m_RLatLon0.09_PT074H.grib2 2026-05-02 15:02 390K
20260502T12Z_MSC_RDPS_AirTemp_IsbL-0001_RLatLon0.09_PT074H.grib2 2026-05-02 15:02 323K
20260502T12Z_MSC_RDPS_AirTemp_IsbL-0005_RLatLon0.09_PT074H.grib2 2026-05-02 15:02 292K
20260502T12Z_MSC_RDPS_AirTemp_IsbL-0010_RLatLon0.09_PT074H.grib2 2026-05-02 15:02 395K
20260502T12Z_MSC_RDPS_AirTemp_IsbL-0020_RLatLon0.09_PT074H.grib2 2026-05-02 15:02 321K
20260502T12Z_MSC_RDPS_AirTemp_IsbL-0030_RLatLon0.09_PT074H.grib2 2026-05-02 15:02 341K
20260502T12Z_MSC_RDPS_AirTemp_IsbL-0050_RLatLon0.09_PT074H.grib2 2026-05-02 15:02 319K
20260502T12Z_MSC_RDPS_AirTemp_IsbL-0100_RLatLon0.09_PT074H.grib2 2026-05-02 15:02 431K
20260502T12Z_MSC_RDPS_AirTemp_IsbL-0150_RLatLon0.09_PT074H.grib2 2026-05-02 15:02 418K
20260502T12Z_MSC_RDPS_AirTemp_IsbL-0175_RLatLon0.09_PT074H.grib2 2026-05-02 15:02 410K
20260502T12Z_MSC_RDPS_AirTemp_IsbL-0200_RLatLon0.09_PT074H.grib2 2026-05-02 15:02 412K
20260502T12Z_MSC_RDPS_AirTemp_IsbL-0225_RLatLon0.09_PT074H.grib2 2026-05-02 15:02 411K
20260502T12Z_MSC_RDPS_AirTemp_IsbL-0250_RLatLon0.09_PT074H.grib2 2026-05-02 15:02 417K
20260502T12Z_MSC_RDPS_AirTemp_IsbL-0275_RLatLon0.09_PT074H.grib2 2026-05-02 15:02 400K
20260502T12Z_MSC_RDPS_AirTemp_IsbL-0300_RLatLon0.09_PT074H.grib2 2026-05-02 15:02 408K
20260502T12Z_MSC_RDPS_AirTemp_IsbL-0350_RLatLon0.09_PT074H.grib2 2026-05-02 15:02 426K
20260502T12Z_MSC_RDPS_AirTemp_IsbL-0400_RLatLon0.09_PT074H.grib2 2026-05-02 15:02 430K
20260502T12Z_MSC_RDPS_AirTemp_IsbL-0450_RLatLon0.09_PT074H.grib2 2026-05-02 15:02 437K
20260502T12Z_MSC_RDPS_AirTemp_IsbL-0500_RLatLon0.09_PT074H.grib2 2026-05-02 15:02 445K
20260502T12Z_MSC_RDPS_AirTemp_IsbL-0550_RLatLon0.09_PT074H.grib2 2026-05-02 15:02 461K
20260502T12Z_MSC_RDPS_AirTemp_IsbL-0600_RLatLon0.09_PT074H.grib2 2026-05-02 15:02 442K
20260502T12Z_MSC_RDPS_AirTemp_IsbL-0650_RLatLon0.09_PT074H.grib2 2026-05-02 15:02 458K
20260502T12Z_MSC_RDPS_AirTemp_IsbL-0700_RLatLon0.09_PT074H.grib2 2026-05-02 15:02 485K
20260502T12Z_MSC_RDPS_AirTemp_IsbL-0750_RLatLon0.09_PT074H.grib2 2026-05-02 15:02 524K
20260502T12Z_MSC_RDPS_AirTemp_IsbL-0800_RLatLon0.09_PT074H.grib2 2026-05-02 15:02 583K
20260502T12Z_MSC_RDPS_AirTemp_IsbL-0850_RLatLon0.09_PT074H.grib2 2026-05-02 15:02 646K
20260502T12Z_MSC_RDPS_AirTemp_IsbL-0875_RLatLon0.09_PT074H.grib2 2026-05-02 15:02 534K
20260502T12Z_MSC_RDPS_AirTemp_IsbL-0900_RLatLon0.09_PT074H.grib2 2026-05-02 15:02 674K
20260502T12Z_MSC_RDPS_AirTemp_IsbL-0925_RLatLon0.09_PT074H.grib2 2026-05-02 15:02 667K
20260502T12Z_MSC_RDPS_AirTemp_IsbL-0950_RLatLon0.09_PT074H.grib2 2026-05-02 15:02 530K
20260502T12Z_MSC_RDPS_AirTemp_IsbL-0970_RLatLon0.09_PT074H.grib2 2026-05-02 15:02 656K
20260502T12Z_MSC_RDPS_AirTemp_IsbL-0985_RLatLon0.09_PT074H.grib2 2026-05-02 15:02 514K
20260502T12Z_MSC_RDPS_AirTemp_IsbL-1000_RLatLon0.09_PT074H.grib2 2026-05-02 15:02 501K
20260502T12Z_MSC_RDPS_AirTemp_IsbL-1015_RLatLon0.09_PT074H.grib2 2026-05-02 15:02 508K
20260502T12Z_MSC_RDPS_Albedo_Sfc_RLatLon0.09_PT074H.grib2 2026-05-02 15:02 158K
20260502T12Z_MSC_RDPS_CAPE_Sfc_RLatLon0.09_PT074H.grib2 2026-05-02 15:02 1.8M
20260502T12Z_MSC_RDPS_CIN_Sfc_RLatLon0.09_PT074H.grib2 2026-05-02 15:02 1.1M
20260502T12Z_MSC_RDPS_CloudWater_EAtm_RLatLon0.09_PT074H.grib2 2026-05-02 15:02 222K
20260502T12Z_MSC_RDPS_ConvectivePrecip-Accum_Sfc_RLatLon0.09_PT074H.grib2 2026-05-02 15:02 1.3M
20260502T12Z_MSC_RDPS_DewPointDepression_AGL-2m_RLatLon0.09_PT074H.grib2 2026-05-02 15:02 415K
20260502T12Z_MSC_RDPS_DewPointDepression_IsbL-0001_RLatLon0.09_PT074H.grib2 2026-05-02 15:02 193
20260502T12Z_MSC_RDPS_DewPointDepression_IsbL-0005_RLatLon0.09_PT074H.grib2 2026-05-02 15:02 193
20260502T12Z_MSC_RDPS_DewPointDepression_IsbL-0010_RLatLon0.09_PT074H.grib2 2026-05-02 15:02 193
20260502T12Z_MSC_RDPS_DewPointDepression_IsbL-0020_RLatLon0.09_PT074H.grib2 2026-05-02 15:02 193
20260502T12Z_MSC_RDPS_DewPointDepression_IsbL-0030_RLatLon0.09_PT074H.grib2 2026-05-02 15:02 193
20260502T12Z_MSC_RDPS_DewPointDepression_IsbL-0050_RLatLon0.09_PT074H.grib2 2026-05-02 15:02 79K
20260502T12Z_MSC_RDPS_DewPointDepression_IsbL-0100_RLatLon0.09_PT074H.grib2 2026-05-02 15:02 115K
20260502T12Z_MSC_RDPS_DewPointDepression_IsbL-0150_RLatLon0.09_PT074H.grib2 2026-05-02 15:02 140K
20260502T12Z_MSC_RDPS_DewPointDepression_IsbL-0175_RLatLon0.09_PT074H.grib2 2026-05-02 15:02 178K
20260502T12Z_MSC_RDPS_DewPointDepression_IsbL-0200_RLatLon0.09_PT074H.grib2 2026-05-02 15:02 214K
20260502T12Z_MSC_RDPS_DewPointDepression_IsbL-0225_RLatLon0.09_PT074H.grib2 2026-05-02 15:02 248K
20260502T12Z_MSC_RDPS_DewPointDepression_IsbL-0250_RLatLon0.09_PT074H.grib2 2026-05-02 15:02 291K
20260502T12Z_MSC_RDPS_DewPointDepression_IsbL-0275_RLatLon0.09_PT074H.grib2 2026-05-02 15:02 302K
20260502T12Z_MSC_RDPS_DewPointDepression_IsbL-0300_RLatLon0.09_PT074H.grib2 2026-05-02 15:02 319K
20260502T12Z_MSC_RDPS_DewPointDepression_IsbL-0350_RLatLon0.09_PT074H.grib2 2026-05-02 15:02 325K
20260502T12Z_MSC_RDPS_DewPointDepression_IsbL-0400_RLatLon0.09_PT074H.grib2 2026-05-02 15:02 336K
20260502T12Z_MSC_RDPS_DewPointDepression_IsbL-0450_RLatLon0.09_PT074H.grib2 2026-05-02 15:02 339K
20260502T12Z_MSC_RDPS_DewPointDepression_IsbL-0500_RLatLon0.09_PT074H.grib2 2026-05-02 15:02 343K
20260502T12Z_MSC_RDPS_DewPointDepression_IsbL-0550_RLatLon0.09_PT074H.grib2 2026-05-02 15:02 353K
20260502T12Z_MSC_RDPS_DewPointDepression_IsbL-0600_RLatLon0.09_PT074H.grib2 2026-05-02 15:02 362K
20260502T12Z_MSC_RDPS_DewPointDepression_IsbL-0650_RLatLon0.09_PT074H.grib2 2026-05-02 15:02 371K
20260502T12Z_MSC_RDPS_DewPointDepression_IsbL-0700_RLatLon0.09_PT074H.grib2 2026-05-02 15:02 383K
20260502T12Z_MSC_RDPS_DewPointDepression_IsbL-0750_RLatLon0.09_PT074H.grib2 2026-05-02 15:02 405K
20260502T12Z_MSC_RDPS_DewPointDepression_IsbL-0800_RLatLon0.09_PT074H.grib2 2026-05-02 15:02 443K
20260502T12Z_MSC_RDPS_DewPointDepression_IsbL-0850_RLatLon0.09_PT074H.grib2 2026-05-02 15:02 477K
20260502T12Z_MSC_RDPS_DewPointDepression_IsbL-0875_RLatLon0.09_PT074H.grib2 2026-05-02 15:02 475K
20260502T12Z_MSC_RDPS_DewPointDepression_IsbL-0900_RLatLon0.09_PT074H.grib2 2026-05-02 15:02 464K
20260502T12Z_MSC_RDPS_DewPointDepression_IsbL-0925_RLatLon0.09_PT074H.grib2 2026-05-02 15:02 451K
20260502T12Z_MSC_RDPS_DewPointDepression_IsbL-0950_RLatLon0.09_PT074H.grib2 2026-05-02 15:02 446K
20260502T12Z_MSC_RDPS_DewPointDepression_IsbL-0970_RLatLon0.09_PT074H.grib2 2026-05-02 15:02 443K
20260502T12Z_MSC_RDPS_DewPointDepression_IsbL-0985_RLatLon0.09_PT074H.grib2 2026-05-02 15:02 440K
20260502T12Z_MSC_RDPS_DewPointDepression_IsbL-1000_RLatLon0.09_PT074H.grib2 2026-05-02 15:02 437K
20260502T12Z_MSC_RDPS_DewPointDepression_IsbL-1015_RLatLon0.09_PT074H.grib2 2026-05-02 15:02 430K
20260502T12Z_MSC_RDPS_DewPoint_AGL-2m_RLatLon0.09_PT074H.grib2 2026-05-02 15:02 400K
20260502T12Z_MSC_RDPS_DownwardLongwaveRadiationFlux-Accum_Sfc_RLatLon0.09_PT074H.grib2 2026-05-02 15:02 430K
20260502T12Z_MSC_RDPS_DownwardShortwaveRadiationFlux-Accum_NTAtm_RLatLon0.09_PT074H.grib2 2026-05-02 15:02 164K
20260502T12Z_MSC_RDPS_DownwardShortwaveRadiationFlux-Accum_Sfc_RLatLon0.09_PT074H.grib2 2026-05-02 15:02 632K
20260502T12Z_MSC_RDPS_FreezingRain-Accum1h_Sfc_RLatLon0.09_PT074H.grib2 2026-05-02 15:02 44K
20260502T12Z_MSC_RDPS_FreezingRain-Accum_Sfc_RLatLon0.09_PT074H.grib2 2026-05-02 15:02 213K
20260502T12Z_MSC_RDPS_GeopotentialHeight_IsbL-0001_RLatLon0.09_PT074H.grib2 2026-05-02 15:02 354K
20260502T12Z_MSC_RDPS_GeopotentialHeight_IsbL-0005_RLatLon0.09_PT074H.grib2 2026-05-02 15:02 311K
20260502T12Z_MSC_RDPS_GeopotentialHeight_IsbL-0010_RLatLon0.09_PT074H.grib2 2026-05-02 15:02 311K
20260502T12Z_MSC_RDPS_GeopotentialHeight_IsbL-0020_RLatLon0.09_PT074H.grib2 2026-05-02 15:02 312K
20260502T12Z_MSC_RDPS_GeopotentialHeight_IsbL-0030_RLatLon0.09_PT074H.grib2 2026-05-02 15:02 411K
20260502T12Z_MSC_RDPS_GeopotentialHeight_IsbL-0050_RLatLon0.09_PT074H.grib2 2026-05-02 15:02 314K
20260502T12Z_MSC_RDPS_GeopotentialHeight_IsbL-0100_RLatLon0.09_PT074H.grib2 2026-05-02 15:02 288K
20260502T12Z_MSC_RDPS_GeopotentialHeight_IsbL-0150_RLatLon0.09_PT074H.grib2 2026-05-02 15:02 230K
20260502T12Z_MSC_RDPS_GeopotentialHeight_IsbL-0175_RLatLon0.09_PT074H.grib2 2026-05-02 15:02 232K
20260502T12Z_MSC_RDPS_GeopotentialHeight_IsbL-0200_RLatLon0.09_PT074H.grib2 2026-05-02 15:02 235K
20260502T12Z_MSC_RDPS_GeopotentialHeight_IsbL-0225_RLatLon0.09_PT074H.grib2 2026-05-02 15:02 237K
20260502T12Z_MSC_RDPS_GeopotentialHeight_IsbL-0250_RLatLon0.09_PT074H.grib2 2026-05-02 15:02 237K
20260502T12Z_MSC_RDPS_GeopotentialHeight_IsbL-0275_RLatLon0.09_PT074H.grib2 2026-05-02 15:02 237K
20260502T12Z_MSC_RDPS_GeopotentialHeight_IsbL-0300_RLatLon0.09_PT074H.grib2 2026-05-02 15:02 236K
20260502T12Z_MSC_RDPS_GeopotentialHeight_IsbL-0350_RLatLon0.09_PT074H.grib2 2026-05-02 15:02 231K
20260502T12Z_MSC_RDPS_GeopotentialHeight_IsbL-0400_RLatLon0.09_PT074H.grib2 2026-05-02 15:02 304K
20260502T12Z_MSC_RDPS_GeopotentialHeight_IsbL-0450_RLatLon0.09_PT074H.grib2 2026-05-02 15:02 299K
20260502T12Z_MSC_RDPS_GeopotentialHeight_IsbL-0500_RLatLon0.09_PT074H.grib2 2026-05-02 15:02 296K
20260502T12Z_MSC_RDPS_GeopotentialHeight_IsbL-0550_RLatLon0.09_PT074H.grib2 2026-05-02 15:02 292K
20260502T12Z_MSC_RDPS_GeopotentialHeight_IsbL-0600_RLatLon0.09_PT074H.grib2 2026-05-02 15:02 262K
20260502T12Z_MSC_RDPS_GeopotentialHeight_IsbL-0650_RLatLon0.09_PT074H.grib2 2026-05-02 15:02 259K
20260502T12Z_MSC_RDPS_GeopotentialHeight_IsbL-0700_RLatLon0.09_PT074H.grib2 2026-05-02 15:02 258K
20260502T12Z_MSC_RDPS_GeopotentialHeight_IsbL-0750_RLatLon0.09_PT074H.grib2 2026-05-02 15:02 345K
20260502T12Z_MSC_RDPS_GeopotentialHeight_IsbL-0800_RLatLon0.09_PT074H.grib2 2026-05-02 15:02 354K
20260502T12Z_MSC_RDPS_GeopotentialHeight_IsbL-0850_RLatLon0.09_PT074H.grib2 2026-05-02 15:02 365K
20260502T12Z_MSC_RDPS_GeopotentialHeight_IsbL-0875_RLatLon0.09_PT074H.grib2 2026-05-02 15:02 368K
20260502T12Z_MSC_RDPS_GeopotentialHeight_IsbL-0900_RLatLon0.09_PT074H.grib2 2026-05-02 15:02 370K
20260502T12Z_MSC_RDPS_GeopotentialHeight_IsbL-0925_RLatLon0.09_PT074H.grib2 2026-05-02 15:02 373K
20260502T12Z_MSC_RDPS_GeopotentialHeight_IsbL-0950_RLatLon0.09_PT074H.grib2 2026-05-02 15:02 286K
20260502T12Z_MSC_RDPS_GeopotentialHeight_IsbL-0970_RLatLon0.09_PT074H.grib2 2026-05-02 15:02 290K
20260502T12Z_MSC_RDPS_GeopotentialHeight_IsbL-0985_RLatLon0.09_PT074H.grib2 2026-05-02 15:02 297K
20260502T12Z_MSC_RDPS_GeopotentialHeight_IsbL-1000_RLatLon0.09_PT074H.grib2 2026-05-02 15:02 306K
20260502T12Z_MSC_RDPS_GeopotentialHeight_IsbL-1015_RLatLon0.09_PT074H.grib2 2026-05-02 15:02 319K
20260502T12Z_MSC_RDPS_Humidex_Sfc_RLatLon0.09_PT074H.grib2 2026-05-02 15:02 2.4M
20260502T12Z_MSC_RDPS_IcePellets-Accum1h_Sfc_RLatLon0.09_PT074H.grib2 2026-05-02 15:02 12K
20260502T12Z_MSC_RDPS_IcePellets-Accum_Sfc_RLatLon0.09_PT074H.grib2 2026-05-02 15:02 41K
20260502T12Z_MSC_RDPS_KIndex_Sfc_RLatLon0.09_PT074H.grib2 2026-05-02 15:02 2.5M
20260502T12Z_MSC_RDPS_LatentHeatNetFlux_Sfc_RLatLon0.09_PT074H.grib2 2026-05-02 15:02 377K
20260502T12Z_MSC_RDPS_LiftedIndex-MU-VT_IsbL-0500_RLatLon0.09_PT074H.grib2 2026-05-02 15:02 2.4M
20260502T12Z_MSC_RDPS_NetLongwaveRadiationFlux-Accum_Sfc_RLatLon0.09_PT074H.grib2 2026-05-02 15:02 481K
20260502T12Z_MSC_RDPS_NetShortwaveRadiationFlux-Accum_Sfc_RLatLon0.09_PT074H.grib2 2026-05-02 15:02 632K
20260502T12Z_MSC_RDPS_PlanetaryBoundaryLayerHeight_Sfc_RLatLon0.09_PT074H.grib2 2026-05-02 15:02 1.0M
20260502T12Z_MSC_RDPS_Precip-Accum1h_Sfc_RLatLon0.09_PT074H.grib2 2026-05-02 15:02 1.3M
20260502T12Z_MSC_RDPS_Precip-Accum_Sfc_RLatLon0.09_PT074H.grib2 2026-05-02 15:02 2.2M
20260502T12Z_MSC_RDPS_PrecipRate_Sfc_RLatLon0.09_PT074H.grib2 2026-05-02 15:02 187K
20260502T12Z_MSC_RDPS_PrecipType-Instant_Sfc_RLatLon0.09_PT074H.grib2 2026-05-02 15:02 611K
20260502T12Z_MSC_RDPS_Pressure-Trend3h_Sfc_RLatLon0.09_PT074H.grib2 2026-05-02 15:02 1.2M
20260502T12Z_MSC_RDPS_Pressure_MSL_RLatLon0.09_PT074H.grib2 2026-05-02 15:02 330K
20260502T12Z_MSC_RDPS_Pressure_PVU-1.5_RLatLon0.09_PT074H.grib2 2026-05-02 15:02 2.5M
20260502T12Z_MSC_RDPS_Pressure_PVU-1_RLatLon0.09_PT074H.grib2 2026-05-02 15:02 2.4M
20260502T12Z_MSC_RDPS_Pressure_PVU-2_RLatLon0.09_PT074H.grib2 2026-05-02 15:02 2.4M
20260502T12Z_MSC_RDPS_Pressure_Sfc_RLatLon0.09_PT074H.grib2 2026-05-02 15:02 500K
20260502T12Z_MSC_RDPS_RadiativeTemp_Sfc_RLatLon0.09_PT074H.grib2 2026-05-02 15:02 305K
20260502T12Z_MSC_RDPS_Rain-Accum1h_Sfc_RLatLon0.09_PT074H.grib2 2026-05-02 15:02 660K
20260502T12Z_MSC_RDPS_Rain-Accum_Sfc_RLatLon0.09_PT074H.grib2 2026-05-02 15:02 1.9M
20260502T12Z_MSC_RDPS_RelativeHumidity_AGL-2m_RLatLon0.09_PT074H.grib2 2026-05-02 15:02 1.0M
20260502T12Z_MSC_RDPS_RelativeHumidity_IsbL-0010_RLatLon0.09_PT074H.grib2 2026-05-02 15:02 691K
20260502T12Z_MSC_RDPS_RelativeHumidity_IsbL-0020_RLatLon0.09_PT074H.grib2 2026-05-02 15:02 740K
20260502T12Z_MSC_RDPS_RelativeHumidity_IsbL-0030_RLatLon0.09_PT074H.grib2 2026-05-02 15:02 637K
20260502T12Z_MSC_RDPS_RelativeHumidity_IsbL-0050_RLatLon0.09_PT074H.grib2 2026-05-02 15:02 311K
20260502T12Z_MSC_RDPS_RelativeHumidity_IsbL-0100_RLatLon0.09_PT074H.grib2 2026-05-02 15:02 279K
20260502T12Z_MSC_RDPS_RelativeHumidity_IsbL-0150_RLatLon0.09_PT074H.grib2 2026-05-02 15:02 412K
20260502T12Z_MSC_RDPS_RelativeHumidity_IsbL-0175_RLatLon0.09_PT074H.grib2 2026-05-02 15:02 480K
20260502T12Z_MSC_RDPS_RelativeHumidity_IsbL-0200_RLatLon0.09_PT074H.grib2 2026-05-02 15:02 555K
20260502T12Z_MSC_RDPS_RelativeHumidity_IsbL-0225_RLatLon0.09_PT074H.grib2 2026-05-02 15:02 614K
20260502T12Z_MSC_RDPS_RelativeHumidity_IsbL-0250_RLatLon0.09_PT074H.grib2 2026-05-02 15:02 672K
20260502T12Z_MSC_RDPS_RelativeHumidity_IsbL-0275_RLatLon0.09_PT074H.grib2 2026-05-02 15:02 695K
20260502T12Z_MSC_RDPS_RelativeHumidity_IsbL-0300_RLatLon0.09_PT074H.grib2 2026-05-02 15:02 739K
20260502T12Z_MSC_RDPS_RelativeHumidity_IsbL-0350_RLatLon0.09_PT074H.grib2 2026-05-02 15:02 765K
20260502T12Z_MSC_RDPS_RelativeHumidity_IsbL-0400_RLatLon0.09_PT074H.grib2 2026-05-02 15:02 782K
20260502T12Z_MSC_RDPS_RelativeHumidity_IsbL-0450_RLatLon0.09_PT074H.grib2 2026-05-02 15:02 787K
20260502T12Z_MSC_RDPS_RelativeHumidity_IsbL-0500_RLatLon0.09_PT074H.grib2 2026-05-02 15:02 790K
20260502T12Z_MSC_RDPS_RelativeHumidity_IsbL-0550_RLatLon0.09_PT074H.grib2 2026-05-02 15:02 804K
20260502T12Z_MSC_RDPS_RelativeHumidity_IsbL-0600_RLatLon0.09_PT074H.grib2 2026-05-02 15:02 832K
20260502T12Z_MSC_RDPS_RelativeHumidity_IsbL-0650_RLatLon0.09_PT074H.grib2 2026-05-02 15:02 847K
20260502T12Z_MSC_RDPS_RelativeHumidity_IsbL-0700_RLatLon0.09_PT074H.grib2 2026-05-02 15:02 867K
20260502T12Z_MSC_RDPS_RelativeHumidity_IsbL-0750_RLatLon0.09_PT074H.grib2 2026-05-02 15:02 913K
20260502T12Z_MSC_RDPS_RelativeHumidity_IsbL-0800_RLatLon0.09_PT074H.grib2 2026-05-02 15:02 1.0M
20260502T12Z_MSC_RDPS_RelativeHumidity_IsbL-0850_RLatLon0.09_PT074H.grib2 2026-05-02 15:02 1.0M
20260502T12Z_MSC_RDPS_RelativeHumidity_IsbL-0875_RLatLon0.09_PT074H.grib2 2026-05-02 15:02 1.1M
20260502T12Z_MSC_RDPS_RelativeHumidity_IsbL-0900_RLatLon0.09_PT074H.grib2 2026-05-02 15:02 1.1M
20260502T12Z_MSC_RDPS_RelativeHumidity_IsbL-0925_RLatLon0.09_PT074H.grib2 2026-05-02 15:02 1.1M
20260502T12Z_MSC_RDPS_RelativeHumidity_IsbL-0950_RLatLon0.09_PT074H.grib2 2026-05-02 15:02 1.1M
20260502T12Z_MSC_RDPS_RelativeHumidity_IsbL-0970_RLatLon0.09_PT074H.grib2 2026-05-02 15:02 1.1M
20260502T12Z_MSC_RDPS_RelativeHumidity_IsbL-0985_RLatLon0.09_PT074H.grib2 2026-05-02 15:02 1.1M
20260502T12Z_MSC_RDPS_RelativeHumidity_IsbL-1000_RLatLon0.09_PT074H.grib2 2026-05-02 15:02 1.0M
20260502T12Z_MSC_RDPS_RelativeHumidity_IsbL-1015_RLatLon0.09_PT074H.grib2 2026-05-02 15:02 1.0M
20260502T12Z_MSC_RDPS_Runoff-Accum_Sfc_RLatLon0.09_PT074H.grib2 2026-05-02 15:02 67K
20260502T12Z_MSC_RDPS_SWEATIndex_Sfc_RLatLon0.09_PT074H.grib2 2026-05-02 15:02 2.4M
20260502T12Z_MSC_RDPS_SeeingIndex_EAtm_RLatLon0.09_PT074H.grib2 2026-05-02 15:02 1.0M
20260502T12Z_MSC_RDPS_SensibleHeatNetFlux_Sfc_RLatLon0.09_PT074H.grib2 2026-05-02 15:02 347K
20260502T12Z_MSC_RDPS_ShowalterIndex_IsbL-0500_RLatLon0.09_PT074H.grib2 2026-05-02 15:02 2.6M
20260502T12Z_MSC_RDPS_SkyTransparencyIndex_EAtm_RLatLon0.09_PT074H.grib2 2026-05-02 15:02 700K
20260502T12Z_MSC_RDPS_Snow-Accum1h_Sfc_RLatLon0.09_PT074H.grib2 2026-05-02 15:02 477K
20260502T12Z_MSC_RDPS_Snow-Accum_Sfc_RLatLon0.09_PT074H.grib2 2026-05-02 15:02 804K
20260502T12Z_MSC_RDPS_SnowDensity_Sfc_RLatLon0.09_PT074H.grib2 2026-05-02 15:02 177K
20260502T12Z_MSC_RDPS_SnowDepth_Sfc_RLatLon0.09_PT074H.grib2 2026-05-02 15:02 660K
20260502T12Z_MSC_RDPS_SoilTemp_DBS-0to10cm_RLatLon0.09_PT074H.grib2 2026-05-02 15:02 242K
20260502T12Z_MSC_RDPS_SoilTemp_Sfc_RLatLon0.09_PT074H.grib2 2026-05-02 15:02 280K
20260502T12Z_MSC_RDPS_SoilVolumetricIceContent_Sfc_RLatLon0.09_PT074H.grib2 2026-05-02 15:02 154K
20260502T12Z_MSC_RDPS_SoilVolumetricWaterContent_DBS-0to10cm_RLatLon0.09_PT074H.grib2 2026-05-02 15:02 278K
20260502T12Z_MSC_RDPS_SoilVolumetricWaterContent_DBS-0to1cm_RLatLon0.09_PT074H.grib2 2026-05-02 15:02 344K
20260502T12Z_MSC_RDPS_SpecificHumidity_AGL-120m_RLatLon0.09_PT074H.grib2 2026-05-02 15:02 501K
20260502T12Z_MSC_RDPS_SpecificHumidity_AGL-2m_RLatLon0.09_PT074H.grib2 2026-05-02 15:02 673K
20260502T12Z_MSC_RDPS_SpecificHumidity_AGL-40m_RLatLon0.09_PT074H.grib2 2026-05-02 15:02 508K
20260502T12Z_MSC_RDPS_SpecificHumidity_AGL-80m_RLatLon0.09_PT074H.grib2 2026-05-02 15:02 503K
20260502T12Z_MSC_RDPS_SpecificHumidity_IsbL-0001_RLatLon0.09_PT074H.grib2 2026-05-02 15:02 372K
20260502T12Z_MSC_RDPS_SpecificHumidity_IsbL-0005_RLatLon0.09_PT074H.grib2 2026-05-02 15:02 359K
20260502T12Z_MSC_RDPS_SpecificHumidity_IsbL-0010_RLatLon0.09_PT074H.grib2 2026-05-02 15:02 394K
20260502T12Z_MSC_RDPS_SpecificHumidity_IsbL-0020_RLatLon0.09_PT074H.grib2 2026-05-02 15:02 372K
20260502T12Z_MSC_RDPS_SpecificHumidity_IsbL-0030_RLatLon0.09_PT074H.grib2 2026-05-02 15:02 365K
20260502T12Z_MSC_RDPS_SpecificHumidity_IsbL-0050_RLatLon0.09_PT074H.grib2 2026-05-02 15:02 472K
20260502T12Z_MSC_RDPS_SpecificHumidity_IsbL-0100_RLatLon0.09_PT074H.grib2 2026-05-02 15:02 416K
20260502T12Z_MSC_RDPS_SpecificHumidity_IsbL-0150_RLatLon0.09_PT074H.grib2 2026-05-02 15:02 446K
20260502T12Z_MSC_RDPS_SpecificHumidity_IsbL-0175_RLatLon0.09_PT074H.grib2 2026-05-02 15:02 440K
20260502T12Z_MSC_RDPS_SpecificHumidity_IsbL-0200_RLatLon0.09_PT074H.grib2 2026-05-02 15:02 455K
20260502T12Z_MSC_RDPS_SpecificHumidity_IsbL-0225_RLatLon0.09_PT074H.grib2 2026-05-02 15:02 452K
20260502T12Z_MSC_RDPS_SpecificHumidity_IsbL-0250_RLatLon0.09_PT074H.grib2 2026-05-02 15:02 554K
20260502T12Z_MSC_RDPS_SpecificHumidity_IsbL-0275_RLatLon0.09_PT074H.grib2 2026-05-02 15:02 470K
20260502T12Z_MSC_RDPS_SpecificHumidity_IsbL-0300_RLatLon0.09_PT074H.grib2 2026-05-02 15:02 541K
20260502T12Z_MSC_RDPS_SpecificHumidity_IsbL-0350_RLatLon0.09_PT074H.grib2 2026-05-02 15:02 439K
20260502T12Z_MSC_RDPS_SpecificHumidity_IsbL-0400_RLatLon0.09_PT074H.grib2 2026-05-02 15:02 520K
20260502T12Z_MSC_RDPS_SpecificHumidity_IsbL-0450_RLatLon0.09_PT074H.grib2 2026-05-02 15:02 567K
20260502T12Z_MSC_RDPS_SpecificHumidity_IsbL-0500_RLatLon0.09_PT074H.grib2 2026-05-02 15:02 499K
20260502T12Z_MSC_RDPS_SpecificHumidity_IsbL-0550_RLatLon0.09_PT074H.grib2 2026-05-02 15:02 552K
20260502T12Z_MSC_RDPS_SpecificHumidity_IsbL-0600_RLatLon0.09_PT074H.grib2 2026-05-02 15:02 620K
20260502T12Z_MSC_RDPS_SpecificHumidity_IsbL-0650_RLatLon0.09_PT074H.grib2 2026-05-02 15:02 538K
20260502T12Z_MSC_RDPS_SpecificHumidity_IsbL-0700_RLatLon0.09_PT074H.grib2 2026-05-02 15:02 585K
20260502T12Z_MSC_RDPS_SpecificHumidity_IsbL-0750_RLatLon0.09_PT074H.grib2 2026-05-02 15:02 643K
20260502T12Z_MSC_RDPS_SpecificHumidity_IsbL-0800_RLatLon0.09_PT074H.grib2 2026-05-02 15:02 720K
20260502T12Z_MSC_RDPS_SpecificHumidity_IsbL-0850_RLatLon0.09_PT074H.grib2 2026-05-02 15:02 810K
20260502T12Z_MSC_RDPS_SpecificHumidity_IsbL-0875_RLatLon0.09_PT074H.grib2 2026-05-02 15:02 836K
20260502T12Z_MSC_RDPS_SpecificHumidity_IsbL-0900_RLatLon0.09_PT074H.grib2 2026-05-02 15:02 846K
20260502T12Z_MSC_RDPS_SpecificHumidity_IsbL-0925_RLatLon0.09_PT074H.grib2 2026-05-02 15:02 847K
20260502T12Z_MSC_RDPS_SpecificHumidity_IsbL-0950_RLatLon0.09_PT074H.grib2 2026-05-02 15:02 848K
20260502T12Z_MSC_RDPS_SpecificHumidity_IsbL-0970_RLatLon0.09_PT074H.grib2 2026-05-02 15:02 704K
20260502T12Z_MSC_RDPS_SpecificHumidity_IsbL-0985_RLatLon0.09_PT074H.grib2 2026-05-02 15:02 700K
20260502T12Z_MSC_RDPS_SpecificHumidity_IsbL-1000_RLatLon0.09_PT074H.grib2 2026-05-02 15:02 696K
20260502T12Z_MSC_RDPS_SpecificHumidity_IsbL-1015_RLatLon0.09_PT074H.grib2 2026-05-02 15:02 688K
20260502T12Z_MSC_RDPS_SpecificHumidity_Sfc_RLatLon0.09_PT074H.grib2 2026-05-02 15:02 310K
20260502T12Z_MSC_RDPS_StormRelativeHelicity_EtaL-10000_RLatLon0.09_PT074H.grib2 2026-05-02 15:02 1.1M
20260502T12Z_MSC_RDPS_StormSeverityIndex_EtaL-10000_RLatLon0.09_PT074H.grib2 2026-05-02 15:02 1.1M
20260502T12Z_MSC_RDPS_Thickness_IsbL-0850to0700_RLatLon0.09_PT074H.grib2 2026-05-02 15:02 178K
20260502T12Z_MSC_RDPS_Thickness_IsbL-1000to0500_RLatLon0.09_PT074H.grib2 2026-05-02 15:02 200K
20260502T12Z_MSC_RDPS_Thickness_IsbL-1000to0850_RLatLon0.09_PT074H.grib2 2026-05-02 15:02 263K
20260502T12Z_MSC_RDPS_TotalCloudCover_Sfc_RLatLon0.09_PT074H.grib2 2026-05-02 15:02 665K
20260502T12Z_MSC_RDPS_TotalTotalsIndex_Sfc_RLatLon0.09_PT074H.grib2 2026-05-02 15:02 2.4M
20260502T12Z_MSC_RDPS_UVIndex-ClearSky_Sfc_RLatLon0.09_PT074H.grib2 2026-05-02 15:02 210K
20260502T12Z_MSC_RDPS_UVIndex_Sfc_RLatLon0.09_PT074H.grib2 2026-05-02 15:02 470K
20260502T12Z_MSC_RDPS_UpwardLongwaveRadiationFlux_NTAtm_RLatLon0.09_PT074H.grib2 2026-05-02 15:02 485K
20260502T12Z_MSC_RDPS_UpwardShortwaveRadiationFlux_NTAtm_RLatLon0.09_PT074H.grib2 2026-05-02 15:02 419K
20260502T12Z_MSC_RDPS_VerticalVelocity_IsbL-0250_RLatLon0.09_PT074H.grib2 2026-05-02 15:02 559K
20260502T12Z_MSC_RDPS_VerticalVelocity_IsbL-0500_RLatLon0.09_PT074H.grib2 2026-05-02 15:02 555K
20260502T12Z_MSC_RDPS_VerticalVelocity_IsbL-0700_RLatLon0.09_PT074H.grib2 2026-05-02 15:02 602K
20260502T12Z_MSC_RDPS_VerticalVelocity_IsbL-0850_RLatLon0.09_PT074H.grib2 2026-05-02 15:02 707K
20260502T12Z_MSC_RDPS_VerticalWindShear_EtaL-6500_RLatLon0.09_PT074H.grib2 2026-05-02 15:02 1.2M
20260502T12Z_MSC_RDPS_WindChill_Sfc_RLatLon0.09_PT074H.grib2 2026-05-02 15:02 1.2M
20260502T12Z_MSC_RDPS_WindDir_AGL-10m_RLatLon0.09_PT074H.grib2 2026-05-02 15:02 966K
20260502T12Z_MSC_RDPS_WindDir_AGL-120m_RLatLon0.09_PT074H.grib2 2026-05-02 15:02 606K
20260502T12Z_MSC_RDPS_WindDir_AGL-40m_RLatLon0.09_PT074H.grib2 2026-05-02 15:02 631K
20260502T12Z_MSC_RDPS_WindDir_AGL-80m_RLatLon0.09_PT074H.grib2 2026-05-02 15:02 616K
20260502T12Z_MSC_RDPS_WindDir_IsbL-0001_RLatLon0.09_PT074H.grib2 2026-05-02 15:02 322K
20260502T12Z_MSC_RDPS_WindDir_IsbL-0005_RLatLon0.09_PT074H.grib2 2026-05-02 15:02 400K
20260502T12Z_MSC_RDPS_WindDir_IsbL-0010_RLatLon0.09_PT074H.grib2 2026-05-02 15:02 403K
20260502T12Z_MSC_RDPS_WindDir_IsbL-0020_RLatLon0.09_PT074H.grib2 2026-05-02 15:02 418K
20260502T12Z_MSC_RDPS_WindDir_IsbL-0030_RLatLon0.09_PT074H.grib2 2026-05-02 15:02 429K
20260502T12Z_MSC_RDPS_WindDir_IsbL-0050_RLatLon0.09_PT074H.grib2 2026-05-02 15:02 430K
20260502T12Z_MSC_RDPS_WindDir_IsbL-0100_RLatLon0.09_PT074H.grib2 2026-05-02 15:02 419K
20260502T12Z_MSC_RDPS_WindDir_IsbL-0150_RLatLon0.09_PT074H.grib2 2026-05-02 15:02 402K
20260502T12Z_MSC_RDPS_WindDir_IsbL-0175_RLatLon0.09_PT074H.grib2 2026-05-02 15:02 427K
20260502T12Z_MSC_RDPS_WindDir_IsbL-0200_RLatLon0.09_PT074H.grib2 2026-05-02 15:02 445K
20260502T12Z_MSC_RDPS_WindDir_IsbL-0225_RLatLon0.09_PT074H.grib2 2026-05-02 15:02 455K
20260502T12Z_MSC_RDPS_WindDir_IsbL-0250_RLatLon0.09_PT074H.grib2 2026-05-02 15:02 450K
20260502T12Z_MSC_RDPS_WindDir_IsbL-0275_RLatLon0.09_PT074H.grib2 2026-05-02 15:02 472K
20260502T12Z_MSC_RDPS_WindDir_IsbL-0300_RLatLon0.09_PT074H.grib2 2026-05-02 15:02 476K
20260502T12Z_MSC_RDPS_WindDir_IsbL-0350_RLatLon0.09_PT074H.grib2 2026-05-02 15:02 496K
20260502T12Z_MSC_RDPS_WindDir_IsbL-0400_RLatLon0.09_PT074H.grib2 2026-05-02 15:02 514K
20260502T12Z_MSC_RDPS_WindDir_IsbL-0450_RLatLon0.09_PT074H.grib2 2026-05-02 15:02 535K
20260502T12Z_MSC_RDPS_WindDir_IsbL-0500_RLatLon0.09_PT074H.grib2 2026-05-02 15:02 539K
20260502T12Z_MSC_RDPS_WindDir_IsbL-0550_RLatLon0.09_PT074H.grib2 2026-05-02 15:02 552K
20260502T12Z_MSC_RDPS_WindDir_IsbL-0600_RLatLon0.09_PT074H.grib2 2026-05-02 15:02 578K
20260502T12Z_MSC_RDPS_WindDir_IsbL-0650_RLatLon0.09_PT074H.grib2 2026-05-02 15:02 618K
20260502T12Z_MSC_RDPS_WindDir_IsbL-0700_RLatLon0.09_PT074H.grib2 2026-05-02 15:02 663K
20260502T12Z_MSC_RDPS_WindDir_IsbL-0750_RLatLon0.09_PT074H.grib2 2026-05-02 15:02 711K
20260502T12Z_MSC_RDPS_WindDir_IsbL-0800_RLatLon0.09_PT074H.grib2 2026-05-02 15:02 782K
20260502T12Z_MSC_RDPS_WindDir_IsbL-0850_RLatLon0.09_PT074H.grib2 2026-05-02 15:02 866K
20260502T12Z_MSC_RDPS_WindDir_IsbL-0875_RLatLon0.09_PT074H.grib2 2026-05-02 15:02 899K
20260502T12Z_MSC_RDPS_WindDir_IsbL-0900_RLatLon0.09_PT074H.grib2 2026-05-02 15:02 912K
20260502T12Z_MSC_RDPS_WindDir_IsbL-0925_RLatLon0.09_PT074H.grib2 2026-05-02 15:02 916K
20260502T12Z_MSC_RDPS_WindDir_IsbL-0950_RLatLon0.09_PT074H.grib2 2026-05-02 15:02 910K
20260502T12Z_MSC_RDPS_WindDir_IsbL-0970_RLatLon0.09_PT074H.grib2 2026-05-02 15:02 915K
20260502T12Z_MSC_RDPS_WindDir_IsbL-0985_RLatLon0.09_PT074H.grib2 2026-05-02 15:02 924K
20260502T12Z_MSC_RDPS_WindDir_IsbL-1000_RLatLon0.09_PT074H.grib2 2026-05-02 15:02 939K
20260502T12Z_MSC_RDPS_WindDir_IsbL-1015_RLatLon0.09_PT074H.grib2 2026-05-02 15:02 956K
20260502T12Z_MSC_RDPS_WindGust-Max_AGL-10m_RLatLon0.09_PT074H.grib2 2026-05-02 15:02 958K
20260502T12Z_MSC_RDPS_WindGust-Min_AGL-10m_RLatLon0.09_PT074H.grib2 2026-05-02 15:02 1.0M
20260502T12Z_MSC_RDPS_WindGust_AGL-10m_RLatLon0.09_PT074H.grib2 2026-05-02 15:02 1.0M
20260502T12Z_MSC_RDPS_WindSpeed_AGL-10m_RLatLon0.09_PT074H.grib2 2026-05-02 15:02 858K
20260502T12Z_MSC_RDPS_WindSpeed_AGL-120m_RLatLon0.09_PT074H.grib2 2026-05-02 15:02 562K
20260502T12Z_MSC_RDPS_WindSpeed_AGL-40m_RLatLon0.09_PT074H.grib2 2026-05-02 15:02 554K
20260502T12Z_MSC_RDPS_WindSpeed_AGL-80m_RLatLon0.09_PT074H.grib2 2026-05-02 15:02 552K
20260502T12Z_MSC_RDPS_WindSpeed_IsbL-0001_RLatLon0.09_PT074H.grib2 2026-05-02 15:02 339K
20260502T12Z_MSC_RDPS_WindSpeed_IsbL-0005_RLatLon0.09_PT074H.grib2 2026-05-02 15:02 389K
20260502T12Z_MSC_RDPS_WindSpeed_IsbL-0010_RLatLon0.09_PT074H.grib2 2026-05-02 15:02 371K
20260502T12Z_MSC_RDPS_WindSpeed_IsbL-0020_RLatLon0.09_PT074H.grib2 2026-05-02 15:02 424K
20260502T12Z_MSC_RDPS_WindSpeed_IsbL-0030_RLatLon0.09_PT074H.grib2 2026-05-02 15:02 324K
20260502T12Z_MSC_RDPS_WindSpeed_IsbL-0050_RLatLon0.09_PT074H.grib2 2026-05-02 15:02 353K
20260502T12Z_MSC_RDPS_WindSpeed_IsbL-0100_RLatLon0.09_PT074H.grib2 2026-05-02 15:02 481K
20260502T12Z_MSC_RDPS_WindSpeed_IsbL-0150_RLatLon0.09_PT074H.grib2 2026-05-02 15:02 382K
20260502T12Z_MSC_RDPS_WindSpeed_IsbL-0175_RLatLon0.09_PT074H.grib2 2026-05-02 15:02 430K
20260502T12Z_MSC_RDPS_WindSpeed_IsbL-0200_RLatLon0.09_PT074H.grib2 2026-05-02 15:02 441K
20260502T12Z_MSC_RDPS_WindSpeed_IsbL-0225_RLatLon0.09_PT074H.grib2 2026-05-02 15:02 444K
20260502T12Z_MSC_RDPS_WindSpeed_IsbL-0250_RLatLon0.09_PT074H.grib2 2026-05-02 15:02 447K
20260502T12Z_MSC_RDPS_WindSpeed_IsbL-0275_RLatLon0.09_PT074H.grib2 2026-05-02 15:02 463K
20260502T12Z_MSC_RDPS_WindSpeed_IsbL-0300_RLatLon0.09_PT074H.grib2 2026-05-02 15:02 463K
20260502T12Z_MSC_RDPS_WindSpeed_IsbL-0350_RLatLon0.09_PT074H.grib2 2026-05-02 15:02 476K
20260502T12Z_MSC_RDPS_WindSpeed_IsbL-0400_RLatLon0.09_PT074H.grib2 2026-05-02 15:02 479K
20260502T12Z_MSC_RDPS_WindSpeed_IsbL-0450_RLatLon0.09_PT074H.grib2 2026-05-02 15:02 463K
20260502T12Z_MSC_RDPS_WindSpeed_IsbL-0500_RLatLon0.09_PT074H.grib2 2026-05-02 15:02 464K
20260502T12Z_MSC_RDPS_WindSpeed_IsbL-0550_RLatLon0.09_PT074H.grib2 2026-05-02 15:02 464K
20260502T12Z_MSC_RDPS_WindSpeed_IsbL-0600_RLatLon0.09_PT074H.grib2 2026-05-02 15:02 591K
20260502T12Z_MSC_RDPS_WindSpeed_IsbL-0650_RLatLon0.09_PT074H.grib2 2026-05-02 15:02 611K
20260502T12Z_MSC_RDPS_WindSpeed_IsbL-0700_RLatLon0.09_PT074H.grib2 2026-05-02 15:02 634K
20260502T12Z_MSC_RDPS_WindSpeed_IsbL-0750_RLatLon0.09_PT074H.grib2 2026-05-02 15:02 662K
20260502T12Z_MSC_RDPS_WindSpeed_IsbL-0800_RLatLon0.09_PT074H.grib2 2026-05-02 15:02 763K
20260502T12Z_MSC_RDPS_WindSpeed_IsbL-0850_RLatLon0.09_PT074H.grib2 2026-05-02 15:02 834K
20260502T12Z_MSC_RDPS_WindSpeed_IsbL-0875_RLatLon0.09_PT074H.grib2 2026-05-02 15:02 860K
20260502T12Z_MSC_RDPS_WindSpeed_IsbL-0900_RLatLon0.09_PT074H.grib2 2026-05-02 15:02 827K
20260502T12Z_MSC_RDPS_WindSpeed_IsbL-0925_RLatLon0.09_PT074H.grib2 2026-05-02 15:02 837K
20260502T12Z_MSC_RDPS_WindSpeed_IsbL-0950_RLatLon0.09_PT074H.grib2 2026-05-02 15:02 835K
20260502T12Z_MSC_RDPS_WindSpeed_IsbL-0970_RLatLon0.09_PT074H.grib2 2026-05-02 15:02 877K
20260502T12Z_MSC_RDPS_WindSpeed_IsbL-0985_RLatLon0.09_PT074H.grib2 2026-05-02 15:02 871K
20260502T12Z_MSC_RDPS_WindSpeed_IsbL-1000_RLatLon0.09_PT074H.grib2 2026-05-02 15:02 868K
20260502T12Z_MSC_RDPS_WindSpeed_IsbL-1015_RLatLon0.09_PT074H.grib2 2026-05-02 15:02 857K
20260502T12Z_MSC_RDPS_WindU_AGL-10m_RLatLon0.09_PT074H.grib2 2026-05-02 15:02 440K
20260502T12Z_MSC_RDPS_WindU_AGL-120m_RLatLon0.09_PT074H.grib2 2026-05-02 15:02 426K
20260502T12Z_MSC_RDPS_WindU_AGL-40m_RLatLon0.09_PT074H.grib2 2026-05-02 15:02 546K
20260502T12Z_MSC_RDPS_WindU_AGL-80m_RLatLon0.09_PT074H.grib2 2026-05-02 15:02 427K
20260502T12Z_MSC_RDPS_WindU_IsbL-0001_RLatLon0.09_PT074H.grib2 2026-05-02 15:02 249K
20260502T12Z_MSC_RDPS_WindU_IsbL-0005_RLatLon0.09_PT074H.grib2 2026-05-02 15:02 287K
20260502T12Z_MSC_RDPS_WindU_IsbL-0010_RLatLon0.09_PT074H.grib2 2026-05-02 15:02 299K
20260502T12Z_MSC_RDPS_WindU_IsbL-0020_RLatLon0.09_PT074H.grib2 2026-05-02 15:02 316K
20260502T12Z_MSC_RDPS_WindU_IsbL-0030_RLatLon0.09_PT074H.grib2 2026-05-02 15:02 354K
20260502T12Z_MSC_RDPS_WindU_IsbL-0050_RLatLon0.09_PT074H.grib2 2026-05-02 15:02 382K
20260502T12Z_MSC_RDPS_WindU_IsbL-0100_RLatLon0.09_PT074H.grib2 2026-05-02 15:02 337K
20260502T12Z_MSC_RDPS_WindU_IsbL-0150_RLatLon0.09_PT074H.grib2 2026-05-02 15:02 397K
20260502T12Z_MSC_RDPS_WindU_IsbL-0175_RLatLon0.09_PT074H.grib2 2026-05-02 15:02 422K
20260502T12Z_MSC_RDPS_WindU_IsbL-0200_RLatLon0.09_PT074H.grib2 2026-05-02 15:02 335K
20260502T12Z_MSC_RDPS_WindU_IsbL-0225_RLatLon0.09_PT074H.grib2 2026-05-02 15:02 337K
20260502T12Z_MSC_RDPS_WindU_IsbL-0250_RLatLon0.09_PT074H.grib2 2026-05-02 15:02 338K
20260502T12Z_MSC_RDPS_WindU_IsbL-0275_RLatLon0.09_PT074H.grib2 2026-05-02 15:02 353K
20260502T12Z_MSC_RDPS_WindU_IsbL-0300_RLatLon0.09_PT074H.grib2 2026-05-02 15:02 351K
20260502T12Z_MSC_RDPS_WindU_IsbL-0350_RLatLon0.09_PT074H.grib2 2026-05-02 15:02 361K
20260502T12Z_MSC_RDPS_WindU_IsbL-0400_RLatLon0.09_PT074H.grib2 2026-05-02 15:02 364K
20260502T12Z_MSC_RDPS_WindU_IsbL-0450_RLatLon0.09_PT074H.grib2 2026-05-02 15:02 468K
20260502T12Z_MSC_RDPS_WindU_IsbL-0500_RLatLon0.09_PT074H.grib2 2026-05-02 15:02 469K
20260502T12Z_MSC_RDPS_WindU_IsbL-0550_RLatLon0.09_PT074H.grib2 2026-05-02 15:02 470K
20260502T12Z_MSC_RDPS_WindU_IsbL-0600_RLatLon0.09_PT074H.grib2 2026-05-02 15:02 479K
20260502T12Z_MSC_RDPS_WindU_IsbL-0650_RLatLon0.09_PT074H.grib2 2026-05-02 15:02 497K
20260502T12Z_MSC_RDPS_WindU_IsbL-0700_RLatLon0.09_PT074H.grib2 2026-05-02 15:02 502K
20260502T12Z_MSC_RDPS_WindU_IsbL-0750_RLatLon0.09_PT074H.grib2 2026-05-02 15:02 529K
20260502T12Z_MSC_RDPS_WindU_IsbL-0800_RLatLon0.09_PT074H.grib2 2026-05-02 15:02 578K
20260502T12Z_MSC_RDPS_WindU_IsbL-0850_RLatLon0.09_PT074H.grib2 2026-05-02 15:02 648K
20260502T12Z_MSC_RDPS_WindU_IsbL-0875_RLatLon0.09_PT074H.grib2 2026-05-02 15:02 668K
20260502T12Z_MSC_RDPS_WindU_IsbL-0900_RLatLon0.09_PT074H.grib2 2026-05-02 15:02 677K
20260502T12Z_MSC_RDPS_WindU_IsbL-0925_RLatLon0.09_PT074H.grib2 2026-05-02 15:02 681K
20260502T12Z_MSC_RDPS_WindU_IsbL-0950_RLatLon0.09_PT074H.grib2 2026-05-02 15:02 670K
20260502T12Z_MSC_RDPS_WindU_IsbL-0970_RLatLon0.09_PT074H.grib2 2026-05-02 15:02 664K
20260502T12Z_MSC_RDPS_WindU_IsbL-0985_RLatLon0.09_PT074H.grib2 2026-05-02 15:02 659K
20260502T12Z_MSC_RDPS_WindU_IsbL-1000_RLatLon0.09_PT074H.grib2 2026-05-02 15:02 797K
20260502T12Z_MSC_RDPS_WindU_IsbL-1015_RLatLon0.09_PT074H.grib2 2026-05-02 15:02 793K
20260502T12Z_MSC_RDPS_WindV_AGL-10m_RLatLon0.09_PT074H.grib2 2026-05-02 15:02 441K
20260502T12Z_MSC_RDPS_WindV_AGL-120m_RLatLon0.09_PT074H.grib2 2026-05-02 15:02 427K
20260502T12Z_MSC_RDPS_WindV_AGL-40m_RLatLon0.09_PT074H.grib2 2026-05-02 15:02 548K
20260502T12Z_MSC_RDPS_WindV_AGL-80m_RLatLon0.09_PT074H.grib2 2026-05-02 15:02 428K
20260502T12Z_MSC_RDPS_WindV_IsbL-0001_RLatLon0.09_PT074H.grib2 2026-05-02 15:02 252K
20260502T12Z_MSC_RDPS_WindV_IsbL-0005_RLatLon0.09_PT074H.grib2 2026-05-02 15:02 291K
20260502T12Z_MSC_RDPS_WindV_IsbL-0010_RLatLon0.09_PT074H.grib2 2026-05-02 15:02 303K
20260502T12Z_MSC_RDPS_WindV_IsbL-0020_RLatLon0.09_PT074H.grib2 2026-05-02 15:02 320K
20260502T12Z_MSC_RDPS_WindV_IsbL-0030_RLatLon0.09_PT074H.grib2 2026-05-02 15:02 356K
20260502T12Z_MSC_RDPS_WindV_IsbL-0050_RLatLon0.09_PT074H.grib2 2026-05-02 15:02 349K
20260502T12Z_MSC_RDPS_WindV_IsbL-0100_RLatLon0.09_PT074H.grib2 2026-05-02 15:02 337K
20260502T12Z_MSC_RDPS_WindV_IsbL-0150_RLatLon0.09_PT074H.grib2 2026-05-02 15:02 395K
20260502T12Z_MSC_RDPS_WindV_IsbL-0175_RLatLon0.09_PT074H.grib2 2026-05-02 15:02 325K
20260502T12Z_MSC_RDPS_WindV_IsbL-0200_RLatLon0.09_PT074H.grib2 2026-05-02 15:02 334K
20260502T12Z_MSC_RDPS_WindV_IsbL-0225_RLatLon0.09_PT074H.grib2 2026-05-02 15:02 337K
20260502T12Z_MSC_RDPS_WindV_IsbL-0250_RLatLon0.09_PT074H.grib2 2026-05-02 15:02 365K
20260502T12Z_MSC_RDPS_WindV_IsbL-0275_RLatLon0.09_PT074H.grib2 2026-05-02 15:02 376K
20260502T12Z_MSC_RDPS_WindV_IsbL-0300_RLatLon0.09_PT074H.grib2 2026-05-02 15:02 376K
20260502T12Z_MSC_RDPS_WindV_IsbL-0350_RLatLon0.09_PT074H.grib2 2026-05-02 15:02 360K
20260502T12Z_MSC_RDPS_WindV_IsbL-0400_RLatLon0.09_PT074H.grib2 2026-05-02 15:02 363K
20260502T12Z_MSC_RDPS_WindV_IsbL-0450_RLatLon0.09_PT074H.grib2 2026-05-02 15:02 365K
20260502T12Z_MSC_RDPS_WindV_IsbL-0500_RLatLon0.09_PT074H.grib2 2026-05-02 15:02 468K
20260502T12Z_MSC_RDPS_WindV_IsbL-0550_RLatLon0.09_PT074H.grib2 2026-05-02 15:02 469K
20260502T12Z_MSC_RDPS_WindV_IsbL-0600_RLatLon0.09_PT074H.grib2 2026-05-02 15:02 477K
20260502T12Z_MSC_RDPS_WindV_IsbL-0650_RLatLon0.09_PT074H.grib2 2026-05-02 15:02 477K
20260502T12Z_MSC_RDPS_WindV_IsbL-0700_RLatLon0.09_PT074H.grib2 2026-05-02 15:02 497K
20260502T12Z_MSC_RDPS_WindV_IsbL-0750_RLatLon0.09_PT074H.grib2 2026-05-02 15:02 524K
20260502T12Z_MSC_RDPS_WindV_IsbL-0800_RLatLon0.09_PT074H.grib2 2026-05-02 15:02 571K
20260502T12Z_MSC_RDPS_WindV_IsbL-0850_RLatLon0.09_PT074H.grib2 2026-05-02 15:02 633K
20260502T12Z_MSC_RDPS_WindV_IsbL-0875_RLatLon0.09_PT074H.grib2 2026-05-02 15:02 656K
20260502T12Z_MSC_RDPS_WindV_IsbL-0900_RLatLon0.09_PT074H.grib2 2026-05-02 15:02 668K
20260502T12Z_MSC_RDPS_WindV_IsbL-0925_RLatLon0.09_PT074H.grib2 2026-05-02 15:02 674K
20260502T12Z_MSC_RDPS_WindV_IsbL-0950_RLatLon0.09_PT074H.grib2 2026-05-02 15:02 669K
20260502T12Z_MSC_RDPS_WindV_IsbL-0970_RLatLon0.09_PT074H.grib2 2026-05-02 15:02 666K
20260502T12Z_MSC_RDPS_WindV_IsbL-0985_RLatLon0.09_PT074H.grib2 2026-05-02 15:02 662K
20260502T12Z_MSC_RDPS_WindV_IsbL-1000_RLatLon0.09_PT074H.grib2 2026-05-02 15:02 800K
20260502T12Z_MSC_RDPS_WindV_IsbL-1015_RLatLon0.09_PT074H.grib2 2026-05-02 15:02 795K